Geneva, Switzerland

6:19 PM CET on December 13, 2017 (GMT +0100)
Cointrin

Weather History for LSGG - January, 2014

Change the Weather History Date:

Friday, January 3, 2014

  Actual Average Record
Temperature  
Mean Temperature 38 °F -  
Max Temperature 46 °F 38 °F 51 °F (2015)
Min Temperature 30 °F 28 °F 15 °F (2002)
Degree Days  
Heating Degree Days 27    
Moisture  
Dew Point 39 °F    
Average Humidity 93    
Maximum Humidity 100    
Minimum Humidity 70    
Precipitation  
Precipitation 0.31 in 0.10 in - ()
Sea Level Pressure  
Sea Level Pressure 30.01 in    
Wind  
Wind Speed 2 mph ()    
Max Wind Speed 8 mph    
Max Gust Speed -    
Visibility 6.0 miles    
Events Fog , Rain    
Averages and records for this station are not official NWS values.
T = Trace of Precipitation, MM = Missing Value Source: Averaged Metar Reports

Daily Weather History Graph

Daily Weather History Graph

Search for Another Location

Airport or City:

Trip Planner

Search our weather history database for the weather conditions in past years. The results will help you decide how hot, cold, wet, or windy it might be!

Date:

Astronomy

Jan. 03, 2014 Rise Set
Actual Time 8:18 AM CET 5:01 PM CET
Civil Twilight 7:43 AM CET 5:36 PM CET
Nautical Twilight 7:05 AM CET 6:14 PM CET
Astronomical Twilight 6:29 AM CET 6:50 PM CET
Moon 9:23 AM CET (1/3) 8:02 PM CET (1/3)
Length of Visible Light 9h 52m
Length of Day
8h 43m
Waxing Crescent, 6% of the Moon is Illuminated
Jan 3
Waxing Crescent
Jan 8
First Quarter
Jan 16
Full
Jan 24
Last Quarter
Jan 30
New

Hourly Weather History & Observations

Time (CET) Temp. Windchill Dew Point Humidity Pressure Visibility Wind Dir Wind Speed Gust Speed Precip Events Conditions
12:00 AM 34 °F - 33 °F 95% 29.97 in - Calm Calm - -  
12:20 AM 32.0 °F - 32.0 °F 100% 29.92 in 3.1 mi Calm Calm - N/A Fog Fog
12:50 AM 32.0 °F - 32.0 °F 100% 29.92 in 2.5 mi Calm Calm - N/A Fog Patches of Fog
1:00 AM 32 °F - 31 °F 97% 29.99 in 2 mi West 1.2 mph - - Fog Light Fog
1:20 AM 32.0 °F - 32.0 °F 100% 29.92 in 1.9 mi Calm Calm - N/A Fog Fog
1:50 AM 32.0 °F - 32.0 °F 100% 29.92 in - Calm Calm - N/A Fog Patches of Fog
2:00 AM 32 °F - 30 °F 91% 30.00 in - NE 1.2 mph - -  
2:50 AM 32.0 °F - 32.0 °F 100% 29.92 in 6.2 mi Calm Calm - N/A Fog Shallow Fog
3:00 AM 32 °F - 31 °F 94% 30.00 in - NNE 1.2 mph - -  
3:20 AM 32.0 °F - 32.0 °F 100% 29.92 in 6.2 mi Calm Calm - N/A Fog Shallow Fog
3:50 AM 32.0 °F - 32.0 °F 100% 29.92 in 6.2 mi Calm Calm - N/A Fog Shallow Fog
4:00 AM 32 °F - 30 °F 91% 30.00 in 7 mi NW 1.2 mph - - Fog Shallow Fog
4:20 AM 32.0 °F - 32.0 °F 100% 29.92 in 6.2 mi Calm Calm - N/A Fog Shallow Fog
4:50 AM 32.0 °F - 32.0 °F 100% 29.95 in 6.2 mi Calm Calm - N/A Fog Shallow Fog
5:00 AM 34 °F - 32 °F 91% 30.00 in - SSE 1.2 mph - -  
5:20 AM 32.0 °F - 32.0 °F 100% 29.95 in 6.2 mi Calm Calm - N/A   Mostly Cloudy
5:50 AM 33.8 °F - 33.8 °F 100% 29.95 in 5.0 mi Calm Calm - N/A   Mostly Cloudy
6:00 AM 34 °F - 32 °F 90% 30.00 in - ENE 1.2 mph - -  
6:20 AM 33.8 °F - 33.8 °F 100% 29.92 in 6.2 mi Variable 1.2 mph - N/A   Mostly Cloudy
6:50 AM 33.8 °F - 33.8 °F 100% 29.92 in 6.2 mi Calm Calm - N/A   Mostly Cloudy
7:00 AM 36 °F - 34 °F 87% 29.99 in 11 mi NW 2.3 mph - -   Overcast
7:20 AM 35.6 °F - 35.6 °F 100% 29.92 in 6.2 mi Calm Calm - N/A   Overcast
7:50 AM 35.6 °F - 35.6 °F 100% 29.95 in 6.2 mi Variable 1.2 mph - N/A   Overcast
8:00 AM 37 °F - 35 °F 89% 29.99 in - South 1.2 mph - -  
8:20 AM 35.6 °F - 35.6 °F 100% 29.95 in 6.2 mi Variable 1.2 mph - N/A Rain Light Rain
8:50 AM 41.0 °F 37.1 °F 37.4 °F 87% 29.98 in 5.0 mi SW 5.8 mph - N/A Rain Rain
9:00 AM 39 °F - 37 °F 88% 30.04 in - SW 4.6 mph - -  
9:20 AM 39.2 °F 37.0 °F 37.4 °F 93% 30.01 in 5.6 mi SW 3.5 mph - N/A Rain Light Rain
9:50 AM 41.0 °F - 39.2 °F 93% 30.01 in 5.6 mi Variable 2.3 mph - N/A Rain Light Rain
10:00 AM 41 °F - 38 °F 85% 30.06 in 6 mi WNW 6.9 mph - - Rain Light Rain
10:20 AM 41.0 °F - 39.2 °F 93% 30.04 in 6.2 mi Variable 1.2 mph - N/A Rain Light Rain
10:50 AM 41.0 °F - 41.0 °F 100% 30.04 in 6.2 mi Variable 1.2 mph - N/A   Mostly Cloudy
11:00 AM 42 °F - 40 °F 89% 30.07 in - NNW 1.2 mph - -  
11:20 AM 42.8 °F - 42.8 °F 100% 30.04 in 6.2 mi Calm Calm - N/A   Mostly Cloudy
11:50 AM 46.4 °F 44.3 °F 41.0 °F 81% 30.01 in 6.2 mi WSW 4.6 mph - N/A   Mostly Cloudy
12:00 PM 46 °F - 39 °F 70% 30.04 in - WSW 5.8 mph - -  
12:20 PM 46.4 °F 44.3 °F 41.0 °F 81% 30.01 in 6.2 mi SW 4.6 mph - N/A   Mostly Cloudy
12:50 PM 46.4 °F 42.9 °F 41.0 °F 81% 30.01 in 6.2 mi WSW 6.9 mph - N/A   Mostly Cloudy
1:00 PM 46 °F - 40 °F 73% 30.04 in 25 mi WSW 6.9 mph - -   Mostly Cloudy
1:20 PM 46.4 °F 42.4 °F 41.0 °F 81% 30.01 in 6.2 mi WSW 8.1 mph - N/A   Mostly Cloudy
1:50 PM 46.4 °F 42.9 °F 42.8 °F 87% 29.98 in 6.2 mi WSW 6.9 mph - N/A Rain Light Rain
2:00 PM 46 °F - 41 °F 77% 30.02 in - WSW 5.8 mph - -  
2:20 PM 46.4 °F 42.9 °F 42.8 °F 87% 30.01 in 6.2 mi WSW 6.9 mph - N/A Rain Light Rain
2:50 PM 44.6 °F 41.4 °F 42.8 °F 93% 30.01 in 5.6 mi WSW 5.8 mph - N/A Rain Rain
3:00 PM 45 °F - 42 °F 86% 30.04 in - WSW 5.8 mph - -  
3:20 PM 44.6 °F 40.7 °F 42.8 °F 93% 30.01 in 5.6 mi WSW 6.9 mph - N/A Rain Rain
3:50 PM 44.6 °F 41.4 °F 42.8 °F 93% 30.01 in 5.6 mi WSW 5.8 mph - N/A Rain Rain
4:00 PM 45 °F - 42 °F 85% 30.06 in 5 mi WSW 4.6 mph - - Rain Rain
4:20 PM 44.6 °F 40.7 °F 42.8 °F 93% 30.04 in 5.0 mi WSW 6.9 mph - N/A Rain Rain
4:50 PM 44.6 °F 42.2 °F 42.8 °F 93% 30.06 in 5.0 mi West 4.6 mph - N/A Rain Rain
5:00 PM 44 °F - 42 °F 92% 30.07 in - South 6.9 mph - -  
5:20 PM 44.6 °F - 42.8 °F 93% 30.04 in 6.2 mi Variable 2.3 mph - N/A   Mostly Cloudy
5:50 PM 44.6 °F 42.2 °F 42.8 °F 93% 30.06 in 6.2 mi WNW 4.6 mph - N/A   Mostly Cloudy
6:00 PM 45 °F - 42 °F 84% 30.08 in - North 3.5 mph - -  
6:20 PM 44.6 °F - 42.8 °F 93% 30.06 in 6.2 mi Variable 1.2 mph - N/A   Mostly Cloudy
6:50 PM 42.8 °F 40.1 °F 42.8 °F 100% 30.06 in 6.2 mi SSE 4.6 mph - N/A Rain Light Rain
7:00 PM 45 °F - 42 °F 87% 30.10 in 16 mi SSW 4.6 mph - - Rain Light Rain
7:20 PM 42.8 °F 40.1 °F 42.8 °F 100% 30.06 in 6.2 mi SW 4.6 mph - N/A   Mostly Cloudy
7:50 PM 44.6 °F 43.1 °F 42.8 °F 93% 30.06 in 6.2 mi West 3.5 mph - N/A Rain Light Rain
8:00 PM 45 °F - 43 °F 91% 30.11 in - SW 4.6 mph - -  
8:20 PM 46.4 °F 44.3 °F 44.6 °F 93% 30.06 in 6.2 mi SW 4.6 mph - N/A Rain Light Rain
8:50 PM 44.6 °F 40.2 °F 44.6 °F 100% 30.09 in 5.6 mi SW 8.1 mph - N/A Rain Light Rain
9:00 PM 46 °F - 43 °F 86% 30.11 in - WSW 5.8 mph - -  
9:20 PM 44.6 °F 42.2 °F 44.6 °F 100% 30.09 in 5.0 mi WSW 4.6 mph - N/A Rain Rain
9:50 PM 44.6 °F 42.2 °F 44.6 °F 100% 30.06 in 6.2 mi SW 4.6 mph - N/A Rain Light Rain
10:00 PM 45 °F - 43 °F 89% 30.11 in 6 mi West 4.6 mph - - Rain Rain
10:20 PM 44.6 °F 42.2 °F 44.6 °F 100% 30.06 in 6.2 mi WNW 4.6 mph - N/A   Mostly Cloudy
10:50 PM 44.6 °F - 42.8 °F 93% 30.06 in 6.2 mi Variable 2.3 mph - N/A   Scattered Clouds
11:00 PM 44 °F - 43 °F 94% 30.10 in - ESE 2.3 mph - -  
11:20 PM 42.8 °F - 42.8 °F 100% 30.06 in 6.2 mi Calm Calm - N/A   Mostly Cloudy
11:50 PM 42.8 °F - 42.8 °F 100% 30.06 in 5.6 mi Variable 1.2 mph - N/A Fog Patches of Fog